contact:dominique.lefevre@mio.osupytheas.fr, maurice.libes@osupytheas.fr, didier.mallarino@osupytheas.fr
Project:EMSO http://www.emso-fr.org/EMSO-France
Depth: 2436.0 m
Title:EMSO Ligure Ouest : Data MII capteur CSTAR
DateTime,Latitude,Longitude,Instrument_Serial,Reference_Counts,Signal_Counts,Corrected_Signal_raw_counts,Calculated_Beam_c_inverse_meters,Internal_thermistor_counts
DateTime,Latitude,Longitude,Instrument_Serial,Reference_Counts,Signal_Counts,Corrected_Signal_raw_counts,Calculated_Beam_c_inverse_meters,Internal_thermistor_counts
2019-06-24T00:01:21,42.805,6.029,CST-1368DR,8926,12485,15507,0.028,551
2019-06-24T00:04:23,42.805,6.029,CST-1368DR,8927,12486,15506,0.028,551
2019-06-24T00:07:24,42.805,6.029,CST-1368DR,8927,12488,15509,0.028,551
2019-06-24T00:10:26,42.805,6.029,CST-1368DR,8926,12485,15507,0.028,550
2019-06-24T00:13:27,42.805,6.029,CST-1368DR,8926,12490,15513,0.026,551
2019-06-24T00:16:28,42.805,6.029,CST-1368DR,8926,12489,15512,0.027,551
2019-06-24T00:19:30,42.805,6.029,CST-1368DR,8926,12492,15516,0.026,551
2019-06-24T00:22:31,42.805,6.029,CST-1368DR,8926,12488,15511,0.027,551
2019-06-24T00:25:33,42.805,6.029,CST-1368DR,8926,12489,15512,0.027,551
2019-06-24T00:28:34,42.805,6.029,CST-1368DR,8926,12484,15506,0.028,551
2019-06-24T00:31:35,42.805,6.029,CST-1368DR,8926,12489,15511,0.027,551
2019-06-24T00:34:37,42.805,6.029,CST-1368DR,8926,12491,15514,0.026,551
2019-06-24T00:37:38,42.805,6.029,CST-1368DR,8926,12490,15513,0.026,551
2019-06-24T00:40:40,42.805,6.029,CST-1368DR,8926,12490,15513,0.026,551
2019-06-24T00:43:41,42.805,6.029,CST-1368DR,8926,12489,15512,0.027,551
2019-06-24T00:46:42,42.805,6.029,CST-1368DR,8926,12489,15512,0.027,551
2019-06-24T00:49:44,42.805,6.029,CST-1368DR,8926,12490,15513,0.026,551
2019-06-24T00:52:45,42.805,6.029,CST-1368DR,8926,12491,15514,0.026,550
2019-06-24T00:55:47,42.805,6.029,CST-1368DR,8926,12487,15510,0.027,551
2019-06-24T00:58:48,42.805,6.029,CST-1368DR,8926,12492,15516,0.026,551
2019-06-24T01:01:50,42.805,6.029,CST-1368DR,8926,12488,15511,0.027,551
2019-06-24T01:04:51,42.805,6.029,CST-1368DR,8926,12490,15513,0.026,551
2019-06-24T01:07:52,42.805,6.029,CST-1368DR,8926,12490,15513,0.026,551
2019-06-24T01:10:54,42.805,6.029,CST-1368DR,8926,12490,15513,0.026,551
2019-06-24T01:13:55,42.805,6.029,CST-1368DR,8926,12490,15513,0.026,551
2019-06-24T01:16:57,42.805,6.029,CST-1368DR,8926,12487,15509,0.028,551
2019-06-24T01:19:58,42.805,6.029,CST-1368DR,8926,12483,15504,0.029,551
2019-06-24T01:22:59,42.805,6.029,CST-1368DR,8926,12488,15511,0.027,551
2019-06-24T01:26:01,42.805,6.029,CST-1368DR,8926,12491,15514,0.026,551
2019-06-24T01:29:02,42.805,6.029,CST-1368DR,8926,12484,15506,0.028,551
2019-06-24T01:32:04,42.805,6.029,CST-1368DR,8926,12491,15514,0.026,550
2019-06-24T01:35:05,42.805,6.029,CST-1368DR,8926,12483,15505,0.029,551
2019-06-24T01:38:06,42.805,6.029,CST-1368DR,8926,12490,15513,0.026,551
2019-06-24T01:41:08,42.805,6.029,CST-1368DR,8926,12487,15510,0.027,551
2019-06-24T01:44:09,42.805,6.029,CST-1368DR,8926,12490,15513,0.026,551
2019-06-24T01:47:11,42.805,6.029,CST-1368DR,8926,12489,15512,0.027,551
2019-06-24T01:50:12,42.805,6.029,CST-1368DR,8926,12488,15511,0.027,551
2019-06-24T01:53:13,42.805,6.029,CST-1368DR,8926,12491,15514,0.026,551
2019-06-24T01:56:15,42.805,6.029,CST-1368DR,8925,12488,15512,0.027,551
2019-06-24T01:59:16,42.805,6.029,CST-1368DR,8925,12490,15515,0.026,551
2019-06-24T02:02:18,42.805,6.029,CST-1368DR,8925,12489,15514,0.026,550
2019-06-24T02:05:19,42.805,6.029,CST-1368DR,8925,12492,15517,0.025,551
2019-06-24T02:08:21,42.805,6.029,CST-1368DR,8925,12490,15515,0.026,550
2019-06-24T02:11:22,42.805,6.029,CST-1368DR,8925,12489,15514,0.026,551
2019-06-24T02:14:23,42.805,6.029,CST-1368DR,8925,12489,15514,0.026,551
2019-06-24T02:17:25,42.805,6.029,CST-1368DR,8925,12488,15512,0.027,551
2019-06-24T02:20:26,42.805,6.029,CST-1368DR,8925,12488,15513,0.026,551
2019-06-24T02:23:28,42.805,6.029,CST-1368DR,8925,12490,15515,0.026,550
2019-06-24T02:26:29,42.805,6.029,CST-1368DR,8925,12487,15511,0.027,551
2019-06-24T02:29:30,42.805,6.029,CST-1368DR,8925,12486,15510,0.027,551
2019-06-24T02:32:32,42.805,6.029,CST-1368DR,8925,12487,15512,0.027,551
2019-06-24T02:35:33,42.805,6.029,CST-1368DR,8925,12486,15510,0.027,551
2019-06-24T02:38:35,42.805,6.029,CST-1368DR,8925,12483,15506,0.028,551
2019-06-24T02:41:36,42.805,6.029,CST-1368DR,8925,12488,15513,0.026,551
2019-06-24T02:44:37,42.805,6.029,CST-1368DR,8925,12488,15512,0.027,551
2019-06-24T02:47:39,42.805,6.029,CST-1368DR,8925,12488,15512,0.027,550
2019-06-24T02:50:40,42.805,6.029,CST-1368DR,8925,12487,15512,0.027,551
2019-06-24T02:53:42,42.805,6.029,CST-1368DR,8925,12488,15513,0.026,551
2019-06-24T02:56:43,42.805,6.029,CST-1368DR,8925,12488,15512,0.027,551
2019-06-24T02:59:45,42.805,6.029,CST-1368DR,8925,12488,15513,0.026,551
2019-06-24T03:02:46,42.805,6.029,CST-1368DR,8925,12489,15514,0.026,551
2019-06-24T03:05:47,42.805,6.029,CST-1368DR,8925,12486,15509,0.028,551
2019-06-24T03:08:49,42.805,6.029,CST-1368DR,8925,12486,15510,0.027,551
2019-06-24T03:11:50,42.805,6.029,CST-1368DR,8925,12487,15512,0.027,551
2019-06-24T03:14:52,42.805,6.029,CST-1368DR,8925,12490,15514,0.026,551
2019-06-24T03:17:53,42.805,6.029,CST-1368DR,8925,12488,15512,0.027,551
2019-06-24T03:20:54,42.805,6.029,CST-1368DR,8925,12485,15508,0.028,551
2019-06-24T03:23:56,42.805,6.029,CST-1368DR,8925,12481,15504,0.029,551
2019-06-24T03:26:57,42.805,6.029,CST-1368DR,8925,12484,15507,0.028,551
2019-06-24T03:29:59,42.805,6.029,CST-1368DR,8925,12487,15511,0.027,551
2019-06-24T03:33:00,42.805,6.029,CST-1368DR,8925,12486,15510,0.027,550
2019-06-24T03:36:01,42.805,6.029,CST-1368DR,8925,12487,15511,0.027,551
2019-06-24T03:39:03,42.805,6.029,CST-1368DR,8925,12486,15510,0.027,551
2019-06-24T03:42:04,42.805,6.029,CST-1368DR,8925,12487,15512,0.027,551
2019-06-24T03:45:06,42.805,6.029,CST-1368DR,8925,12483,15506,0.028,551
2019-06-24T03:48:07,42.805,6.029,CST-1368DR,8925,12485,15508,0.028,551
2019-06-24T03:51:08,42.805,6.029,CST-1368DR,8925,12483,15506,0.028,551
2019-06-24T03:54:10,42.805,6.029,CST-1368DR,8924,12485,15510,0.027,551
2019-06-24T03:57:11,42.805,6.029,CST-1368DR,8924,12488,15513,0.026,551
2019-06-24T04:00:13,42.805,6.029,CST-1368DR,8924,12487,15513,0.026,551
2019-06-24T04:03:14,42.805,6.029,CST-1368DR,8924,12488,15513,0.026,551
2019-06-24T04:06:16,42.805,6.029,CST-1368DR,8924,12486,15512,0.027,551
2019-06-24T04:09:17,42.805,6.029,CST-1368DR,8924,12486,15511,0.027,551
2019-06-24T04:12:18,42.805,6.029,CST-1368DR,8924,12486,15511,0.027,551
2019-06-24T04:15:20,42.805,6.029,CST-1368DR,8924,12488,15514,0.026,551
2019-06-24T04:18:21,42.805,6.029,CST-1368DR,8924,12486,15511,0.027,551
2019-06-24T04:21:23,42.805,6.029,CST-1368DR,8924,12486,15512,0.027,551
2019-06-24T04:24:24,42.805,6.029,CST-1368DR,8924,12486,15511,0.027,551
2019-06-24T04:27:25,42.805,6.029,CST-1368DR,8924,12485,15510,0.027,551
2019-06-24T04:30:27,42.805,6.029,CST-1368DR,8924,12476,15499,0.030,551
2019-06-24T04:33:28,42.805,6.029,CST-1368DR,8924,12486,15512,0.027,551
2019-06-24T04:36:30,42.805,6.029,CST-1368DR,8924,12485,15510,0.027,551
2019-06-24T04:39:31,42.805,6.029,CST-1368DR,8924,12486,15512,0.027,551
2019-06-24T04:42:32,42.805,6.029,CST-1368DR,8924,12485,15511,0.027,551
2019-06-24T04:45:34,42.805,6.029,CST-1368DR,8924,12479,15503,0.029,551
2019-06-24T04:48:35,42.805,6.029,CST-1368DR,8924,12486,15512,0.027,551
2019-06-24T04:51:37,42.805,6.029,CST-1368DR,8924,12487,15512,0.027,551
2019-06-24T04:54:38,42.805,6.029,CST-1368DR,8924,12483,15508,0.028,551
2019-06-24T04:57:39,42.805,6.029,CST-1368DR,8924,12482,15506,0.028,551
2019-06-24T05:00:41,42.805,6.029,CST-1368DR,8924,12487,15513,0.026,551
2019-06-24T05:03:42,42.805,6.029,CST-1368DR,8924,12486,15511,0.027,551
2019-06-24T05:06:44,42.805,6.029,CST-1368DR,8924,12488,15514,0.026,551
2019-06-24T05:09:45,42.805,6.029,CST-1368DR,8924,12486,15511,0.027,551
2019-06-24T05:12:47,42.805,6.029,CST-1368DR,8924,12487,15513,0.026,551
2019-06-24T05:15:48,42.805,6.029,CST-1368DR,8924,12484,15509,0.028,551
2019-06-24T05:18:49,42.805,6.029,CST-1368DR,8924,12484,15509,0.028,550
2019-06-24T05:21:51,42.805,6.029,CST-1368DR,8924,12486,15512,0.027,550
2019-06-24T05:24:52,42.805,6.029,CST-1368DR,8923,12479,15504,0.029,551
2019-06-24T05:27:54,42.805,6.029,CST-1368DR,8923,12486,15513,0.026,550
2019-06-24T05:30:55,42.805,6.029,CST-1368DR,8923,12483,15510,0.027,551
2019-06-24T05:33:56,42.805,6.029,CST-1368DR,8923,12486,15513,0.026,550
2019-06-24T05:36:58,42.805,6.029,CST-1368DR,8923,12478,15503,0.029,551
2019-06-24T05:39:59,42.805,6.029,CST-1368DR,8923,12485,15512,0.027,551
2019-06-24T05:43:01,42.805,6.029,CST-1368DR,8923,12483,15509,0.028,551
2019-06-24T05:46:02,42.805,6.029,CST-1368DR,8923,12473,15497,0.031,551
2019-06-24T05:49:03,42.805,6.029,CST-1368DR,8923,12485,15512,0.027,551
2019-06-24T05:52:05,42.805,6.029,CST-1368DR,8923,12485,15512,0.027,551
2019-06-24T05:55:06,42.805,6.029,CST-1368DR,8923,12484,15510,0.027,551
2019-06-24T05:58:08,42.805,6.029,CST-1368DR,8923,12482,15508,0.028,551
2019-06-24T06:01:09,42.805,6.029,CST-1368DR,8923,12481,15507,0.028,551
2019-06-24T06:04:11,42.805,6.029,CST-1368DR,8923,12482,15509,0.028,551
2019-06-24T06:07:12,42.805,6.029,CST-1368DR,8923,12479,15504,0.029,551
2019-06-24T06:10:13,42.805,6.029,CST-1368DR,8923,12483,15509,0.028,551
2019-06-24T06:13:15,42.805,6.029,CST-1368DR,8923,12476,15500,0.030,551
2019-06-24T06:16:16,42.805,6.029,CST-1368DR,8923,12483,15509,0.028,551
2019-06-24T06:19:18,42.805,6.029,CST-1368DR,8923,12479,15505,0.029,550
2019-06-24T06:22:19,42.805,6.029,CST-1368DR,8923,12486,15513,0.026,551
2019-06-24T06:25:20,42.805,6.029,CST-1368DR,8923,12486,15513,0.026,551
2019-06-24T06:28:22,42.805,6.029,CST-1368DR,8923,12483,15509,0.028,551
2019-06-24T06:31:23,42.805,6.029,CST-1368DR,8923,12484,15511,0.027,551
2019-06-24T06:34:25,42.805,6.029,CST-1368DR,8923,12485,15512,0.027,551
2019-06-24T06:37:26,42.805,6.029,CST-1368DR,8923,12485,15511,0.027,551
2019-06-24T06:40:27,42.805,6.029,CST-1368DR,8923,12483,15509,0.028,551
2019-06-24T06:43:29,42.805,6.029,CST-1368DR,8923,12484,15511,0.027,551
2019-06-24T06:46:30,42.805,6.029,CST-1368DR,8923,12482,15508,0.028,551
2019-06-24T06:49:32,42.805,6.029,CST-1368DR,8923,12484,15510,0.027,551
2019-06-24T06:52:33,42.805,6.029,CST-1368DR,8923,12482,15509,0.028,551
2019-06-24T06:55:34,42.805,6.029,CST-1368DR,8923,12485,15512,0.027,551
2019-06-24T06:58:36,42.805,6.029,CST-1368DR,8923,12483,15509,0.028,551
2019-06-24T07:01:37,42.805,6.029,CST-1368DR,8923,12479,15504,0.029,551
2019-06-24T07:04:39,42.805,6.029,CST-1368DR,8923,12483,15510,0.027,550
2019-06-24T07:07:40,42.805,6.029,CST-1368DR,8922,12480,15507,0.028,551
2019-06-24T07:10:42,42.805,6.029,CST-1368DR,8923,12482,15509,0.028,551
2019-06-24T07:13:43,42.805,6.029,CST-1368DR,8922,12482,15510,0.027,551
2019-06-24T07:16:44,42.805,6.029,CST-1368DR,8922,12482,15510,0.027,551
2019-06-24T07:19:46,42.805,6.029,CST-1368DR,8922,12484,15513,0.026,551
2019-06-24T07:22:47,42.805,6.029,CST-1368DR,8922,12484,15512,0.027,551
2019-06-24T07:25:49,42.805,6.029,CST-1368DR,8922,12484,15512,0.027,551
2019-06-24T07:28:50,42.805,6.029,CST-1368DR,8922,12475,15500,0.030,551
2019-06-24T07:31:51,42.805,6.029,CST-1368DR,8922,12482,15509,0.028,551
2019-06-24T07:34:53,42.805,6.029,CST-1368DR,8922,12485,15513,0.026,551
2019-06-24T07:37:54,42.805,6.029,CST-1368DR,8922,12485,15513,0.026,550
2019-06-24T07:40:56,42.805,6.029,CST-1368DR,8922,12482,15510,0.027,551
2019-06-24T07:43:57,42.805,6.029,CST-1368DR,8922,12485,15513,0.026,551
2019-06-24T07:46:58,42.805,6.029,CST-1368DR,8922,12484,15512,0.027,551
2019-06-24T07:50:00,42.805,6.029,CST-1368DR,8922,12483,15511,0.027,551
2019-06-24T07:53:01,42.805,6.029,CST-1368DR,8922,12480,15508,0.028,550
2019-06-24T07:56:03,42.805,6.029,CST-1368DR,8922,12484,15512,0.027,551
2019-06-24T07:59:04,42.805,6.029,CST-1368DR,8922,12484,15512,0.027,551
2019-06-24T08:02:05,42.805,6.029,CST-1368DR,8922,12483,15511,0.027,551
2019-06-24T08:05:07,42.805,6.029,CST-1368DR,8922,12484,15512,0.027,551
2019-06-24T08:08:08,42.805,6.029,CST-1368DR,8922,12476,15502,0.029,551
2019-06-24T08:11:10,42.805,6.029,CST-1368DR,8922,12482,15509,0.028,551
2019-06-24T08:14:11,42.805,6.029,CST-1368DR,8922,12482,15510,0.027,551
2019-06-24T08:17:13,42.805,6.029,CST-1368DR,8922,12479,15506,0.028,551
2019-06-24T08:20:14,42.805,6.029,CST-1368DR,8922,12482,15509,0.028,551
2019-06-24T08:23:15,42.805,6.029,CST-1368DR,8922,12482,15509,0.028,551
2019-06-24T08:26:17,42.805,6.029,CST-1368DR,8922,12481,15509,0.028,551
2019-06-24T08:29:18,42.805,6.029,CST-1368DR,8922,12484,15512,0.027,551
2019-06-24T08:32:20,42.805,6.029,CST-1368DR,8922,12483,15511,0.027,551
2019-06-24T08:35:21,42.805,6.029,CST-1368DR,8921,12469,15495,0.031,551
2019-06-24T08:38:22,42.805,6.029,CST-1368DR,8922,12483,15511,0.027,550
2019-06-24T08:41:24,42.805,6.029,CST-1368DR,8921,12472,15499,0.030,551
2019-06-24T08:44:25,42.805,6.029,CST-1368DR,8921,12482,15511,0.027,551
2019-06-24T08:47:27,42.805,6.029,CST-1368DR,8921,12482,15511,0.027,551
2019-06-24T08:50:28,42.805,6.029,CST-1368DR,8921,12482,15512,0.027,551
2019-06-24T08:53:29,42.805,6.029,CST-1368DR,8921,12481,15510,0.027,551
2019-06-24T08:56:31,42.805,6.029,CST-1368DR,8921,12480,15509,0.028,551
2019-06-24T08:59:32,42.805,6.029,CST-1368DR,8921,12477,15505,0.029,551
2019-06-24T09:02:34,42.805,6.029,CST-1368DR,8921,12480,15509,0.028,551
2019-06-24T09:05:35,42.805,6.029,CST-1368DR,8921,12468,15494,0.031,551
2019-06-24T09:08:36,42.805,6.029,CST-1368DR,8921,12474,15502,0.029,551
2019-06-24T09:11:38,42.805,6.029,CST-1368DR,8921,12482,15511,0.027,550
2019-06-24T09:14:39,42.805,6.029,CST-1368DR,8921,12481,15510,0.027,551
2019-06-24T09:17:41,42.805,6.029,CST-1368DR,8921,12481,15510,0.027,551
2019-06-24T09:20:42,42.805,6.029,CST-1368DR,8921,12481,15510,0.027,551
2019-06-24T09:23:44,42.805,6.029,CST-1368DR,8921,12482,15512,0.027,551
2019-06-24T09:26:45,42.805,6.029,CST-1368DR,8921,12481,15510,0.027,551
2019-06-24T09:29:46,42.805,6.029,CST-1368DR,8921,12481,15510,0.027,551
2019-06-24T09:32:48,42.805,6.029,CST-1368DR,8921,12482,15511,0.027,551
2019-06-24T09:35:49,42.805,6.029,CST-1368DR,8921,12480,15509,0.028,551
2019-06-24T09:38:51,42.805,6.029,CST-1368DR,8921,12475,15502,0.029,551
2019-06-24T09:41:52,42.805,6.029,CST-1368DR,8921,12476,15504,0.029,551
2019-06-24T09:44:53,42.805,6.029,CST-1368DR,8921,12480,15508,0.028,551
2019-06-24T09:47:55,42.805,6.029,CST-1368DR,8921,12479,15507,0.028,551
2019-06-24T09:50:56,42.805,6.029,CST-1368DR,8921,12482,15511,0.027,551
2019-06-24T09:53:58,42.805,6.029,CST-1368DR,8921,12480,15508,0.028,551
2019-06-24T09:56:59,42.805,6.029,CST-1368DR,8921,12479,15507,0.028,551
2019-06-24T10:00:00,42.805,6.029,CST-1368DR,8921,12474,15501,0.030,550
2019-06-24T10:03:02,42.805,6.029,CST-1368DR,8921,12482,15511,0.027,551
2019-06-24T10:06:03,42.805,6.029,CST-1368DR,8921,12477,15505,0.029,551
2019-06-24T10:09:05,42.805,6.029,CST-1368DR,8921,12480,15509,0.028,551
2019-06-24T10:12:06,42.805,6.029,CST-1368DR,8920,12481,15512,0.027,551
2019-06-24T10:15:07,42.805,6.029,CST-1368DR,8921,12481,15510,0.027,551
2019-06-24T10:18:09,42.805,6.029,CST-1368DR,8921,12480,15509,0.028,551
2019-06-24T10:21:10,42.805,6.029,CST-1368DR,8920,12481,15511,0.027,551
2019-06-24T10:24:12,42.805,6.029,CST-1368DR,8920,12482,15513,0.026,551
2019-06-24T10:27:13,42.805,6.029,CST-1368DR,8920,12481,15512,0.027,551
2019-06-24T10:30:15,42.805,6.029,CST-1368DR,8920,12476,15505,0.029,551
2019-06-24T10:33:16,42.805,6.029,CST-1368DR,8920,12482,15513,0.026,551
2019-06-24T10:36:17,42.805,6.029,CST-1368DR,8920,12480,15511,0.027,551
2019-06-24T10:39:19,42.805,6.029,CST-1368DR,8920,12480,15510,0.027,551
2019-06-24T10:42:20,42.805,6.029,CST-1368DR,8920,12481,15511,0.027,551
2019-06-24T10:45:22,42.805,6.029,CST-1368DR,8920,12481,15512,0.027,551
2019-06-24T10:48:23,42.805,6.029,CST-1368DR,8920,12479,15509,0.028,551
2019-06-24T10:51:24,42.805,6.029,CST-1368DR,8920,12480,15510,0.027,551
2019-06-24T10:54:26,42.805,6.029,CST-1368DR,8920,12477,15506,0.028,551
2019-06-24T10:57:27,42.805,6.029,CST-1368DR,8920,12479,15509,0.028,551
2019-06-24T11:00:29,42.805,6.029,CST-1368DR,8920,12479,15510,0.027,551
2019-06-24T11:03:30,42.805,6.029,CST-1368DR,8920,12475,15504,0.029,551
2019-06-24T11:06:31,42.805,6.029,CST-1368DR,8920,12479,15509,0.028,551
2019-06-24T11:09:33,42.805,6.029,CST-1368DR,8920,12482,15513,0.026,551
2019-06-24T11:12:34,42.805,6.029,CST-1368DR,8920,12479,15509,0.028,551
2019-06-24T11:15:36,42.805,6.029,CST-1368DR,8920,12480,15511,0.027,551
2019-06-24T11:18:37,42.805,6.029,CST-1368DR,8920,12478,15508,0.028,551
2019-06-24T11:21:38,42.805,6.029,CST-1368DR,8920,12480,15510,0.027,550
2019-06-24T11:24:40,42.805,6.029,CST-1368DR,8920,12481,15511,0.027,551
2019-06-24T11:27:41,42.805,6.029,CST-1368DR,8920,12479,15509,0.028,551
2019-06-24T11:30:43,42.805,6.029,CST-1368DR,8920,12480,15511,0.027,551
2019-06-24T11:33:44,42.805,6.029,CST-1368DR,8920,12480,15510,0.027,551
2019-06-24T11:36:46,42.805,6.029,CST-1368DR,8920,12479,15510,0.027,550
2019-06-24T11:39:47,42.805,6.029,CST-1368DR,8920,12471,15499,0.030,551
2019-06-24T11:42:48,42.805,6.029,CST-1368DR,8920,12479,15510,0.027,551
2019-06-24T11:45:50,42.805,6.029,CST-1368DR,8920,12477,15507,0.028,551
2019-06-24T11:48:51,42.805,6.029,CST-1368DR,8920,12472,15500,0.030,551
2019-06-24T11:51:53,42.805,6.029,CST-1368DR,8920,12480,15510,0.027,550
2019-06-24T11:54:54,42.805,6.029,CST-1368DR,8920,12479,15510,0.027,551
2019-06-24T11:57:55,42.805,6.029,CST-1368DR,8920,12479,15509,0.028,551
2019-06-24T12:00:57,42.805,6.029,CST-1368DR,8920,12479,15509,0.028,551
2019-06-24T12:03:58,42.805,6.029,CST-1368DR,8920,12481,15511,0.027,551
2019-06-24T12:07:00,42.805,6.029,CST-1368DR,8920,12481,15511,0.027,551
2019-06-24T12:10:01,42.805,6.029,CST-1368DR,8920,12479,15510,0.027,551
2019-06-24T12:13:02,42.805,6.029,CST-1368DR,8920,12478,15508,0.028,551
2019-06-24T12:16:04,42.805,6.029,CST-1368DR,8920,12476,15506,0.028,550
2019-06-24T12:19:05,42.805,6.029,CST-1368DR,8920,12478,15508,0.028,551
2019-06-24T12:22:07,42.805,6.029,CST-1368DR,8919,12475,15506,0.028,551
2019-06-24T12:25:08,42.805,6.029,CST-1368DR,8919,12469,15498,0.030,551
2019-06-24T12:28:09,42.805,6.029,CST-1368DR,8919,12481,15513,0.026,550
2019-06-24T12:31:11,42.805,6.029,CST-1368DR,8919,12477,15509,0.028,551
2019-06-24T12:34:12,42.805,6.029,CST-1368DR,8919,12479,15510,0.027,551
2019-06-24T12:37:14,42.805,6.029,CST-1368DR,8919,12479,15511,0.027,551
2019-06-24T12:40:15,42.805,6.029,CST-1368DR,8919,12478,15509,0.028,551
2019-06-24T12:43:17,42.805,6.029,CST-1368DR,8920,12474,15503,0.029,550
2019-06-24T12:46:18,42.805,6.029,CST-1368DR,8919,12474,15505,0.029,551
2019-06-24T12:49:19,42.805,6.029,CST-1368DR,8919,12476,15507,0.028,551
2019-06-24T12:52:21,42.805,6.029,CST-1368DR,8919,12479,15510,0.027,551
2019-06-24T12:55:22,42.805,6.029,CST-1368DR,8919,12479,15511,0.027,550
2019-06-24T12:58:24,42.805,6.029,CST-1368DR,8919,12471,15501,0.030,551
2019-06-24T13:01:25,42.805,6.029,CST-1368DR,8919,12476,15507,0.028,551
2019-06-24T13:04:26,42.805,6.029,CST-1368DR,8919,12478,15509,0.028,551
2019-06-24T13:07:28,42.805,6.029,CST-1368DR,8919,12479,15511,0.027,551
2019-06-24T13:10:29,42.805,6.029,CST-1368DR,8919,12478,15510,0.027,551
2019-06-24T13:13:31,42.805,6.029,CST-1368DR,8919,12480,15512,0.027,551
2019-06-24T13:16:32,42.805,6.029,CST-1368DR,8919,12480,15512,0.027,551
2019-06-24T13:19:33,42.805,6.029,CST-1368DR,8919,12480,15512,0.027,551
2019-06-24T13:22:35,42.805,6.029,CST-1368DR,8919,12478,15510,0.027,551
2019-06-24T13:25:36,42.805,6.029,CST-1368DR,8919,12479,15511,0.027,551
2019-06-24T13:28:38,42.805,6.029,CST-1368DR,8919,12476,15507,0.028,551
2019-06-24T13:31:39,42.805,6.029,CST-1368DR,8919,12479,15511,0.027,551
2019-06-24T13:34:41,42.805,6.029,CST-1368DR,8919,12478,15510,0.027,551
2019-06-24T13:37:42,42.805,6.029,CST-1368DR,8919,12479,15511,0.027,551
2019-06-24T13:40:43,42.805,6.029,CST-1368DR,8919,12479,15511,0.027,551
2019-06-24T13:43:45,42.805,6.029,CST-1368DR,8919,12479,15511,0.027,551
2019-06-24T13:46:46,42.805,6.029,CST-1368DR,8919,12477,15508,0.028,551
2019-06-24T13:49:48,42.805,6.029,CST-1368DR,8919,12477,15508,0.028,551
2019-06-24T13:52:49,42.805,6.029,CST-1368DR,8919,12478,15510,0.027,550
2019-06-24T13:55:50,42.805,6.029,CST-1368DR,8919,12475,15505,0.029,551
2019-06-24T13:58:52,42.805,6.029,CST-1368DR,8919,12472,15502,0.029,551
2019-06-24T14:01:53,42.805,6.029,CST-1368DR,8919,12476,15507,0.028,551
2019-06-24T14:04:55,42.805,6.029,CST-1368DR,8919,12479,15511,0.027,551
2019-06-24T14:07:56,42.805,6.029,CST-1368DR,8918,12477,15510,0.027,551
2019-06-24T14:10:57,42.805,6.029,CST-1368DR,8918,12478,15511,0.027,551
2019-06-24T14:13:59,42.805,6.029,CST-1368DR,8918,12476,15509,0.028,551
2019-06-24T14:17:00,42.805,6.029,CST-1368DR,8918,12476,15509,0.028,551
2019-06-24T14:20:02,42.805,6.029,CST-1368DR,8918,12475,15508,0.028,551
2019-06-24T14:23:03,42.805,6.029,CST-1368DR,8918,12478,15511,0.027,550
2019-06-24T14:26:04,42.805,6.029,CST-1368DR,8918,12479,15512,0.027,550
2019-06-24T14:29:06,42.805,6.029,CST-1368DR,8918,12475,15507,0.028,551
2019-06-24T14:32:07,42.805,6.029,CST-1368DR,8918,12475,15507,0.028,551
2019-06-24T14:35:09,42.805,6.029,CST-1368DR,8918,12472,15503,0.029,551
2019-06-24T14:38:10,42.805,6.029,CST-1368DR,8918,12477,15509,0.028,551
2019-06-24T14:41:12,42.805,6.029,CST-1368DR,8918,12474,15507,0.028,551
2019-06-24T14:44:13,42.805,6.029,CST-1368DR,8918,12476,15509,0.028,551
2019-06-24T14:47:14,42.805,6.029,CST-1368DR,8918,12479,15512,0.027,551
2019-06-24T14:50:16,42.805,6.029,CST-1368DR,8918,12478,15511,0.027,551
2019-06-24T14:53:17,42.805,6.029,CST-1368DR,8918,12475,15507,0.028,551
2019-06-24T14:56:19,42.805,6.029,CST-1368DR,8918,12477,15510,0.027,551
2019-06-24T14:59:20,42.805,6.029,CST-1368DR,8918,12476,15508,0.028,551
2019-06-24T15:02:21,42.805,6.029,CST-1368DR,8918,12478,15511,0.027,551
2019-06-24T15:05:23,42.805,6.029,CST-1368DR,8918,12476,15509,0.028,551
2019-06-24T15:08:24,42.805,6.029,CST-1368DR,8918,12478,15511,0.027,551
2019-06-24T15:11:26,42.805,6.029,CST-1368DR,8918,12476,15508,0.028,551
2019-06-24T15:14:27,42.805,6.029,CST-1368DR,8918,12478,15511,0.027,551
2019-06-24T15:17:28,42.805,6.029,CST-1368DR,8918,12477,15509,0.028,551
2019-06-24T15:20:30,42.805,6.029,CST-1368DR,8918,12477,15510,0.027,551
2019-06-24T15:23:31,42.805,6.029,CST-1368DR,8918,12476,15508,0.028,551
2019-06-24T15:26:33,42.805,6.029,CST-1368DR,8918,12476,15509,0.028,551
2019-06-24T15:29:34,42.805,6.029,CST-1368DR,8918,12478,15511,0.027,551
2019-06-24T15:32:35,42.805,6.029,CST-1368DR,8918,12474,15507,0.028,551
2019-06-24T15:35:37,42.805,6.029,CST-1368DR,8918,12477,15509,0.028,551
2019-06-24T15:38:38,42.805,6.029,CST-1368DR,8918,12479,15512,0.027,551
2019-06-24T15:41:40,42.805,6.029,CST-1368DR,8918,12478,15511,0.027,551
2019-06-24T15:44:41,42.805,6.029,CST-1368DR,8918,12475,15508,0.028,551
2019-06-24T15:47:43,42.805,6.029,CST-1368DR,8918,12476,15509,0.028,551
2019-06-24T15:50:44,42.805,6.029,CST-1368DR,8918,12472,15504,0.029,551
2019-06-24T15:53:45,42.805,6.029,CST-1368DR,8918,12478,15511,0.027,551
2019-06-24T15:56:47,42.805,6.029,CST-1368DR,8918,12478,15512,0.027,551
2019-06-24T15:59:48,42.805,6.029,CST-1368DR,8917,12477,15511,0.027,551
2019-06-24T16:02:50,42.805,6.029,CST-1368DR,8917,12475,15509,0.028,551
2019-06-24T16:05:51,42.805,6.029,CST-1368DR,8917,12473,15506,0.028,551
2019-06-24T16:08:52,42.805,6.029,CST-1368DR,8917,12475,15509,0.028,551
2019-06-24T16:11:54,42.805,6.029,CST-1368DR,8917,12476,15511,0.027,551
2019-06-24T16:14:55,42.805,6.029,CST-1368DR,8917,12469,15501,0.030,551
2019-06-24T16:17:57,42.805,6.029,CST-1368DR,8917,12475,15509,0.028,551
2019-06-24T16:20:58,42.805,6.029,CST-1368DR,8917,12477,15512,0.027,551
2019-06-24T16:23:59,42.805,6.029,CST-1368DR,8917,12474,15508,0.028,551
2019-06-24T16:27:01,42.805,6.029,CST-1368DR,8917,12477,15512,0.027,550
2019-06-24T16:30:02,42.805,6.029,CST-1368DR,8917,12476,15510,0.027,551
2019-06-24T16:33:04,42.805,6.029,CST-1368DR,8917,12477,15511,0.027,551
2019-06-24T16:36:05,42.805,6.029,CST-1368DR,8917,12476,15510,0.027,551